Penticton, British Columbia

6:43 PM PST on February 10, 2016 (GMT -0800)
Penticton

Weather History for CYYF - October, 2013

Change the Weather History Date:

Friday, October 18, 2013

  Actual Average Record
Temperature  
Mean Temperature 42 °F -  
Max Temperature 53 °F 50 °F 68 °F (2003)
Min Temperature 30 °F 33 °F 28 °F (1998)
Degree Days  
Heating Degree Days 24    
Moisture  
Dew Point 36 °F    
Average Humidity 80    
Maximum Humidity 93    
Minimum Humidity 62    
Precipitation  
Precipitation 0.00 in 0.03 in - ()
Sea Level Pressure  
Sea Level Pressure 30.31 in    
Wind  
Wind Speed 5 mph ()    
Max Wind Speed 9 mph    
Max Gust Speed -    
Visibility 15.0 miles    
Events      
Averages and records for this station are not official NWS values.
T = Trace of Precipitation, MM = Missing Value Source: Averaged Metar Reports

Daily Weather History Graph

Daily Weather History Graph

Search for Another Location

Airport or City:

Trip Planner

Search our weather history database for the weather conditions in past years. The results will help you decide how hot, cold, wet, or windy it might be!

Date:

Astronomy

Oct. 18, 2013 Rise Set
Actual Time 7:24 AM PDT 6:01 PM PDT
Civil Twilight 6:52 AM PDT 6:33 PM PDT
Nautical Twilight 6:15 AM PDT 7:10 PM PDT
Astronomical Twilight 5:38 AM PDT 7:47 PM PDT
Moon 5:51 PM PDT (10/18) 7:06 AM PDT (10/18)
Length of Visible Light 11h 41m
Length of Day
10h 36m
Full, 100% of the Moon is Illuminated
Oct 18
Full
Oct 18
Full
Oct 26
Last Quarter
Nov 3
New
Nov 9
First Quarter

Hourly Weather History & Observations

Time (PDT) Temp. Windchill Dew Point Humidity Pressure Visibility Wind Dir Wind Speed Gust Speed Precip Events Conditions
12:00 AM 39.2 °F 33.0 °F 33.8 °F 81% 30.34 in 15.0 mi North 9.2 mph - N/A   Clear
1:00 AM 37.4 °F 32.8 °F 32.0 °F 81% 30.35 in 15.0 mi North 5.8 mph - N/A   Clear
2:00 AM 35.6 °F 32.8 °F 32.0 °F 87% 30.35 in 15.0 mi North 3.5 mph - N/A   Clear
3:00 AM 32.0 °F 27.5 °F 30.2 °F 93% 30.36 in 15.0 mi NNW 4.6 mph - N/A   Clear
4:00 AM 33.8 °F - 32.0 °F 93% 30.36 in 15.0 mi NE 2.3 mph - N/A   Clear
5:00 AM 34 °F - 31 °F 83% 30.36 in 15 mi North 4.6 mph - -  
5:00 AM 33.8 °F 29.6 °F 30.2 °F 87% 30.36 in 15.0 mi North 4.6 mph - N/A   Clear
6:00 AM 32.0 °F 27.5 °F 30.2 °F 93% 30.36 in 15.0 mi North 4.6 mph - N/A   Clear
7:00 AM 33.8 °F 28.6 °F 30.2 °F 87% 30.37 in 15.0 mi NNE 5.8 mph - N/A   Partly Cloudy
8:00 AM 33.8 °F 27.7 °F 30.2 °F 87% 30.37 in 15.0 mi North 6.9 mph - N/A   Partly Cloudy
9:00 AM 41.0 °F 39.0 °F 35.6 °F 81% 30.38 in 15.0 mi NNW 3.5 mph - N/A   Partly Cloudy
10:00 AM 46.4 °F 44.3 °F 39.2 °F 76% 30.37 in 15.0 mi North 4.6 mph - N/A   Scattered Clouds
11:00 AM 48 °F - 40 °F 64% 30.35 in 15 mi North 6.9 mph - -   Scattered Clouds
11:00 AM 48.2 °F - 39.2 °F 71% 30.35 in 15.0 mi NNE 6.9 mph - N/A   Partly Cloudy
12:00 PM 50.0 °F - 39.2 °F 66% 30.34 in 15.0 mi NNW 5.8 mph - N/A   Clear
1:00 PM 51.8 °F - 39.2 °F 62% 30.31 in 15.0 mi North 6.9 mph - N/A   Clear
2:00 PM 51.8 °F - 41.0 °F 67% 30.29 in 15.0 mi North 6.9 mph - N/A   Partly Cloudy
3:00 PM 51.8 °F - 41.0 °F 67% 30.26 in 15.0 mi North 5.8 mph - N/A   Partly Cloudy
4:00 PM 51.8 °F - 41.0 °F 67% 30.24 in 15.0 mi North 6.9 mph - N/A   Scattered Clouds
5:00 PM 50 °F - 41 °F 63% 30.24 in 15 mi North 8.1 mph - -   Clear
5:00 PM 50.0 °F - 41.0 °F 71% 30.23 in 15.0 mi North 8.1 mph - N/A   Mostly Cloudy
6:00 PM 46.4 °F - 39.2 °F 76% 30.23 in 15.0 mi WNW 2.3 mph - N/A   Scattered Clouds
7:00 PM 39.2 °F - 37.4 °F 93% 30.23 in 15.0 mi Calm Calm - N/A   Partly Cloudy
8:00 PM 37.4 °F 34.9 °F 35.6 °F 93% 30.25 in 15.0 mi North 3.5 mph - N/A   Partly Cloudy
9:00 PM 37.4 °F 34.9 °F 35.6 °F 93% 30.24 in 15.0 mi NNE 3.5 mph - N/A   Clear
10:00 PM 37.4 °F 32.1 °F 33.8 °F 87% 30.24 in 15.0 mi North 6.9 mph - N/A   Clear
11:00 PM 37 °F - 35 °F 88% 30.24 in 15 mi North 4.6 mph - -  
11:00 PM 37.4 °F 33.8 °F 33.8 °F 87% 30.24 in 15.0 mi North 4.6 mph - N/A   Clear